User: anonymous   Login
Location: Wawayanda State Park
(41.1833°N, 74.4333°W)
Time: 02:57:55
(UTC-04:00)
Language:

Landsat 7 - Orbit

View from above orbital plane
View from above orbital plane
View from above satellite
View from above satellite

Ground track
Ground track

The orbit data is extracted from the following two-line orbital elements,

1 25682U 99020A   14298.76646312  .00000534  00000-0  12858-3 0  7393
2 25682 098.2256 006.6778 0000970 067.8611 292.2671 14.57105436826007
Epoch (UTC): 25 October 2014 18:23:42
Eccentricity: 0.0000970
inclination: 98.2256°
perigee height: 702 km
apogee height: 703 km
right ascension of ascending node: 6.6778°
argument of perigee: 67.8611°
revolutions per day: 14.57105436
mean anomaly at epoch: 292.2671°
orbit number at epoch: 82600

The dashed part of the orbit path shows where the satellite is in the earth's shadow,  

DLR